Change the Weather History Date:

Sunday, July 14, 2013

  Actual Average Record
Temperature  
Mean Temperature 87 °F 81 °F  
Max Temperature 99 °F 96 °F 109 °F (1939)
Min Temperature 74 °F 66 °F 50 °F (1932)
Degree Days  
Heating Degree Days 0 0  
Month to date heating degree days 0 0  
Since 1 June heating degree days 0 17  
Since 1 July heating degree days 0 0  
Cooling Degree Days 22 16  
Month to date cooling degree days 278 203  
Year to date cooling degree days 759 522  
Since 1 June cooling degree days 679 458  
Growing Degree Days 36 (Base 50)    
Moisture  
Dew Point 48 °F    
Average Humidity 31    
Maximum Humidity 46    
Minimum Humidity 15    
Precipitation  
Precipitation T in 0.02 in 0.26 in (2001)
Month to date precipitation T 0.33  
Year to date precipitation 1.72 4.03  
Sea Level Pressure  
Sea Level Pressure 29.84 in    
Wind  
Wind Speed 7 mph (ENE)    
Max Wind Speed 23 mph    
Max Gust Speed 29 mph    
Visibility 10 miles    
Events Rain    
T = Trace of Precipitation, MM = Missing Value Source: NWS Daily Summary

Daily Weather History Graph

Daily Weather History Graph

Search for Another Location

Airport or City:

Trip Planner

Search our weather history database for the weather conditions in past years. The results will help you decide how hot, cold, wet, or windy it might be!

Date:

Astronomy

Jul. 14, 2013 Rise Set
Actual Time 6:05 AM MDT 8:43 PM MDT
Civil Twilight 5:34 AM MDT 9:14 PM MDT
Nautical Twilight 4:56 AM MDT 9:53 PM MDT
Astronomical Twilight 4:12 AM MDT 10:36 PM MDT
Moon 12:21 PM MDT (7/14) No Moon Set
Length of Visible Light 15h 39m
Length of Day
14h 37m
Waxing Crescent, 35% of the Moon is Illuminated
Jul 14
Waxing Crescent
Jul 15
First Quarter
Jul 22
Full
Jul 29
Last Quarter
Aug 6
New

Hourly Weather History & Observations

Time (MDT) Temp. Heat Index Dew Point Humidity Pressure Visibility Wind Dir Wind Speed Gust Speed Precip Events Conditions
12:53 AM 81.0 °F - 48.0 °F 31% 29.83 in 10.0 mi Calm Calm - N/A   Mostly Cloudy
1:53 AM 79.0 °F - 48.0 °F 34% 29.85 in 10.0 mi ENE 5.8 mph - N/A   Partly Cloudy
2:53 AM 77.0 °F - 48.9 °F 37% 29.86 in 10.0 mi SE 3.5 mph - N/A   Clear
3:53 AM 77.0 °F - 50.0 °F 39% 29.87 in 10.0 mi East 10.4 mph - N/A   Clear
4:53 AM 75.9 °F - 51.1 °F 42% 29.86 in 10.0 mi NE 5.8 mph - N/A   Clear
5:53 AM 73.9 °F - 51.1 °F 45% 29.90 in 10.0 mi Calm Calm - N/A   Clear
6:53 AM 75.9 °F - 51.1 °F 42% 29.91 in 10.0 mi East 9.2 mph - N/A   Scattered Clouds
7:53 AM 77.0 °F - 52.0 °F 42% 29.92 in 10.0 mi East 6.9 mph - N/A   Partly Cloudy
8:53 AM 80.1 °F - 52.0 °F 38% 29.92 in 10.0 mi East 9.2 mph - N/A   Clear
9:53 AM 84.0 °F - 52.0 °F 33% 29.92 in 10.0 mi East 6.9 mph - N/A   Clear
10:53 AM 87.1 °F - 51.1 °F 29% 29.91 in 10.0 mi ENE 9.2 mph - N/A   Clear
11:53 AM 90.0 °F - 50.0 °F 25% 29.89 in 10.0 mi ENE 8.1 mph - N/A   Clear
12:53 PM 93.0 °F - 46.9 °F 20% 29.86 in 10.0 mi Variable 3.5 mph - N/A   Clear
1:53 PM 93.9 °F - 44.1 °F 18% 29.84 in 10.0 mi North 6.9 mph - N/A   Clear
2:53 PM 93.9 °F - 42.1 °F 17% 29.81 in 10.0 mi SW 5.8 mph - N/A   Clear
3:53 PM 97.0 °F - 42.1 °F 15% 29.78 in 10.0 mi NNW 6.9 mph - N/A   Scattered Clouds
4:53 PM 97.0 °F - 43.0 °F 16% 29.76 in 10.0 mi East 9.2 mph - N/A   Mostly Cloudy
5:53 PM 98.1 °F - 43.0 °F 15% 29.74 in 10.0 mi NE 10.4 mph 20.7 mph N/A   Partly Cloudy
6:53 PM 96.1 °F - 42.1 °F 15% 29.73 in 10.0 mi NE 6.9 mph - N/A   Partly Cloudy
7:53 PM 89.1 °F - 48.0 °F 24% 29.77 in 10.0 mi NNE 16.1 mph 28.8 mph 0.00 in Rain Light Rain
8:53 PM 82.9 °F 81.9 °F 54.0 °F 37% 29.77 in 10.0 mi ENE 9.2 mph - 0.00 in   Mostly Cloudy
9:53 PM 82.9 °F - 52.0 °F 34% 29.78 in 10.0 mi Calm Calm - N/A   Clear
10:53 PM 80.1 °F - 50.0 °F 35% 29.79 in 10.0 mi Calm Calm - N/A   Clear
11:53 PM 81.0 °F - 48.9 °F 33% 29.79 in 10.0 mi NNW 5.8 mph - N/A   Scattered Clouds